Zurück zum Katalog

DELTA 1 DEB

AktivSSO
NORAD 7034·DEBRIS·🇺🇸 United States

Gestartet Nov 6, 1973 von Vandenberg Space Force Base

Loading…

Nächste Überflüge (nächste 24 Stunden)

TLE

AktuellSource: Space-Track

Epoche: Sep 14, 2026, 11:11 UTC

1 07034U 73086AA  26257.46623339 -.00000028  00000-0  12469-3 0  9992
2 07034 102.1356 239.4034 0015742 201.7386 310.1722 12.43856983397021

Verfolge DELTA 1 DEB in Echtzeit mit AllMySat

Download on the App Store